[[{"header":{"parameterUnit":"m.s-1","parameterCategory":1,"la1":30.2991,"la2":30.254,"lo1":-89.0895,"lo2":-89.0444,"dy":0.0017,"dx":0.0017,"nx":28,"ny":28,"refTime":"2024-06-13T03:00:00:Z","depth":0,"parameterNumber":2,"parameterNumberName":"U-component_of_WINDS"},"data":[0,0,0,0,0,0,0,0,0,0,0,0,0,0,0,0,0,0,0,0,0,0,0,0,0,0,0,0,0,0,0,0,0,0,0,0,0,0,0,0,0,0,0,0,0,0,0,0,0,0,0,0,0,0,0,0,0,0,1.3269,1.327,0,1.3377,1.3378,1.3379,1.342,1.3419,1.3419,1.3419,1.3527,1.3531,1.3534,0,0,0,0,0,0,0,0,0,0,0,0,0,1.3094,1.3097,1.3268,1.327,1.3271,1.3376,1.3378,1.3379,1.342,1.3419,1.3419,1.3418,1.3526,1.353,1.3534,0,0,0,0,0,0,0,0,0,0,0,0,0,1.3183,1.3098,1.3268,1.3304,1.3308,1.3376,1.3378,1.338,1.342,1.3419,1.3419,1.3418,1.3525,1.353,1.3535,1.3574,0,0,1.3549,1.3551,0,0,0,0,0,0,0,0,1.3178,1.3189,1.3297,1.3302,1.3307,1.3384,1.3357,1.3445,1.342,1.3377,1.3419,1.3418,1.348,1.3489,1.351,1.358,1.3584,1.355,1.3553,1.3555,1.3556,0,0,0,0,0,0,0,1.3172,1.3185,1.3311,1.3299,1.3304,1.3314,1.3326,1.3373,1.343,1.3381,1.3384,1.3396,1.3482,1.3505,1.3513,1.3586,1.355,1.3554,1.3557,1.3559,1.3693,1.3693,0,0,0,0,0,0,1.316,1.3179,1.3308,1.3314,1.324,1.3317,1.3331,1.336,1.343,1.344,1.3397,1.3398,1.3497,1.3507,1.3517,1.3567,1.3555,1.3559,1.3562,1.3692,1.3693,1.3693,0,0,0,0,0,0,1.3156,1.3171,1.3303,1.3248,1.3265,1.3321,1.3353,1.3362,1.3385,1.3442,1.3452,1.341,1.3497,1.351,1.356,1.3572,1.3561,1.3566,1.3691,1.3692,1.3693,1.3669,0,0,0,0,0,0,1.3151,1.3169,1.3186,1.3248,1.3268,1.3345,1.3354,1.3365,1.3393,1.3396,1.3457,1.3466,1.3498,1.3552,1.3564,1.3578,1.357,1.369,1.3692,1.3693,1.3669,1.3669,1.3669,0,0,0,0,0,1.3144,1.3174,1.3186,1.3201,1.329,1.3346,1.3357,1.3394,1.3394,1.341,1.3447,1.3464,1.3568,1.3557,1.3571,1.3586,1.369,1.3691,1.3693,1.3669,1.3669,1.3669,0,0,0,0,0,0,1.3111,1.3183,1.3197,1.3248,1.3291,1.3352,1.3374,1.3393,1.3435,1.3436,1.3479,1.3492,1.3538,1.3567,1.3553,1.3628,1.363,1.3635,1.3607,1.3608,1.3608,1.36,1.3574,0,0,0,0,0,1.311,1.315,1.3211,1.325,1.327,1.3318,1.3344,1.3369,1.3414,1.3432,1.3472,1.3515,1.3557,1.3584,1.3627,1.3674,1.3687,1.3691,1.3691,1.3691,1.3694,1.372,1.3723,1.3698,1.3698,1.3698,0,0,1.3108,1.3152,1.3174,1.3244,1.328,1.332,1.3333,1.3375,1.3405,1.3438,1.3488,1.3518,1.3569,1.3617,1.3641,1.3643,1.3704,1.3693,1.3692,1.3696,1.3722,1.3724,1.3726,1.3699,1.3699,1.3699,0,0,1.3123,1.3161,1.3198,1.3233,1.3287,1.3319,1.3328,1.3387,1.3409,1.3459,1.3485,1.3521,1.3593,1.3628,1.3655,1.3683,1.3701,1.3696,1.3696,1.3721,1.3723,1.3725,1.3735,1.3737,1.3699,1.3699,1.3699,0,1.3113,1.3175,1.3214,1.3254,1.3284,1.3316,1.3353,1.3385,1.345,1.3469,1.3471,1.3563,1.3599,1.3655,1.3662,1.3683,1.3694,1.3689,1.372,1.3722,1.3724,1.3734,1.3737,1.3698,1.3698,1.3698,1.3698,0,1.316,1.3202,1.3225,1.3287,1.3319,1.3357,1.3401,1.3429,1.345,1.3481,1.3532,1.3577,1.3628,1.3643,1.3665,1.3703,1.3703,1.3712,1.3714,1.3725,1.3735,1.3739,1.3696,1.3697,1.3697,1.3697,0,0,1.3158,1.3241,1.3249,1.3277,1.3339,1.3372,1.3411,1.3462,1.3484,1.3528,1.3561,1.3621,1.363,1.3661,1.3686,1.3708,1.3727,1.3715,1.3717,1.3715,1.3771,1.3763,1.3767,1.3739,1.374,1.374,1.3767,0,1.3181,1.3254,1.329,1.3346,1.3385,1.3416,1.345,1.3491,1.3522,1.3558,1.3592,1.3633,1.3642,1.3661,1.3684,1.372,1.3739,1.3718,1.377,1.3771,1.3756,1.3772,1.3765,1.3787,1.3771,1.3771,1.3772,0,1.3219,1.3262,1.3322,1.3379,1.3397,1.3427,1.3476,1.3511,1.3558,1.3579,1.3613,1.3637,1.3679,1.3679,1.3736,1.3722,1.3745,1.3765,1.3767,1.3773,1.3772,1.3778,1.3795,1.3798,1.3778,1.3778,1.3777,0,1.321,1.3284,1.3329,1.3353,1.342,1.3441,1.3469,1.3516,1.3544,1.3587,1.3605,1.3652,1.3678,1.3713,1.3749,1.3746,1.3803,1.3806,1.382,1.3819,1.3831,1.3829,1.3851,1.3846,1.3846,1.3846,1.3846,0,1.3232,1.3268,1.3327,1.3354,1.3395,1.3435,1.3474,1.3505,1.3546,1.358,1.361,1.3641,1.3687,1.3724,1.3753,1.3796,1.3807,1.3824,1.3831,1.3821,1.3819,1.3837,1.3836,1.3847,1.3847,1.3847,1.3847,0,1.323,1.3271,1.3322,1.3382,1.3398,1.3425,1.3476,1.3503,1.3535,1.3577,1.359,1.3639,1.3684,1.3723,1.3783,1.3802,1.3845,1.3855,1.383,1.3833,1.3845,1.3843,1.3879,1.3886,1.3876,1.3876,1.3876,0,1.3241,1.3269,1.3332,1.3357,1.3386,1.3426,1.3455,1.3495,1.3524,1.3579,1.36,1.3647,1.3687,1.3756,1.3797,1.3842,1.3852,1.3862,1.3859,1.3848,1.3852,1.385,1.3852,1.3861,1.3861,1.3861,1.3861,0,1.3256,1.3275,1.3316,1.3364,1.3398,1.3437,1.3477,1.3496,1.3544,1.3574,1.3621,1.3651,1.3712,1.3758,1.3807,1.3837,1.3857,1.3862,1.3867,1.3857,1.3841,1.385,1.3828,1.3861,1.3861,1.3861,1.3861,1.3861,1.3261,1.3287,1.3335,1.338,1.3414,1.3451,1.348,1.3515,1.3555,1.3607,1.3629,1.3676,1.3721,1.379,1.3819,1.3856,1.386,1.3868,1.387,1.3871,1.3869,1.3836,1.3865,1.3865,1.3865,1.3865,1.3865,0,1.3277,1.331,1.335,1.3406,1.344,1.3457,1.3502,1.353,1.3571,1.3612,1.365,1.3703,1.3748,1.3792,1.3839,1.3859,1.387,1.387,1.3869,1.3875,1.3863,1.3854,1.3861,1.3861,1.3861,1.3861,1.3861,1.3861,1.329,1.3335,1.3359,1.3422,1.3454,1.35,1.3525,1.3558,1.3591,1.3649,1.3687,1.3715,1.3757,1.3807,1.3849,1.3861,1.3876,1.3874,1.3888,1.3876,1.3876,1.3876,1.3867,1.3877,1.3877,1.3897,1.3897,1.3897]},{"header":{"parameterUnit":"m.s-1","parameterCategory":1,"la1":30.2991,"la2":30.254,"lo1":-89.0895,"lo2":-89.0444,"dy":0.0017,"dx":0.0017,"nx":28,"ny":28,"refTime":"2024-06-13T03:00:00:Z","depth":0,"parameterNumber":3,"parameterNumberName":"V-component_of_WINDS"},"data":[0,0,0,0,0,0,0,0,0,0,0,0,0,0,0,0,0,0,0,0,0,0,0,0,0,0,0,0,0,0,0,0,0,0,0,0,0,0,0,0,0,0,0,0,0,0,0,0,0,0,0,0,0,0,0,0,0,0,1.2945,1.2944,0,1.2863,1.2862,1.2861,1.2799,1.2799,1.2798,1.2798,1.2709,1.2707,1.2705,0,0,0,0,0,0,0,0,0,0,0,0,0,1.3044,1.3043,1.2945,1.2944,1.2943,1.2863,1.2862,1.2861,1.2799,1.2799,1.2798,1.2797,1.271,1.2708,1.2705,0,0,0,0,0,0,0,0,0,0,0,0,0,1.2985,1.3042,1.2945,1.2903,1.2898,1.2863,1.2862,1.286,1.28,1.2799,1.2798,1.2797,1.271,1.2708,1.2705,1.2704,0,0,1.2696,1.2695,0,0,0,0,0,0,0,0,1.2989,1.2982,1.291,1.2906,1.29,1.2841,1.2864,1.2808,1.28,1.2837,1.2798,1.2797,1.2753,1.2747,1.2733,1.27,1.2696,1.2696,1.2695,1.2693,1.2693,0,0,0,0,0,0,0,1.2993,1.2985,1.2912,1.2909,1.2903,1.2886,1.2877,1.2853,1.28,1.2834,1.2829,1.282,1.275,1.2736,1.273,1.2695,1.2696,1.2694,1.2692,1.2691,1.2654,1.2655,0,0,0,0,0,0,1.3004,1.2989,1.2915,1.291,1.2944,1.2885,1.2875,1.286,1.2801,1.2791,1.2821,1.2818,1.2741,1.2734,1.2727,1.2721,1.2693,1.2691,1.2689,1.2654,1.2655,1.2655,0,0,0,0,0,0,1.3007,1.2998,1.2918,1.2948,1.2936,1.2884,1.2869,1.2859,1.2845,1.2791,1.2781,1.2816,1.274,1.2731,1.271,1.2717,1.2689,1.2687,1.2653,1.2654,1.2655,1.2709,0,0,0,0,0,0,1.301,1.2999,1.3,1.2948,1.2935,1.2904,1.2869,1.2858,1.2841,1.2836,1.2784,1.2775,1.2739,1.2715,1.2707,1.2713,1.2685,1.2652,1.2653,1.2655,1.2707,1.2712,1.2717,0,0,0,0,0,1.3013,1.3018,1.3,1.2991,1.2935,1.2905,1.2897,1.2857,1.2842,1.284,1.2806,1.2776,1.2718,1.2713,1.2704,1.2709,1.2651,1.2653,1.2655,1.2704,1.2711,1.2717,0,0,0,0,0,0,1.307,1.301,1.299,1.2978,1.2947,1.2894,1.2892,1.2865,1.2837,1.2833,1.2783,1.2772,1.2756,1.273,1.2726,1.2704,1.2681,1.2681,1.2721,1.2727,1.2732,1.2738,1.2682,0,0,0,0,0,1.3081,1.3063,1.3011,1.3006,1.2991,1.2945,1.293,1.2902,1.2867,1.2853,1.2817,1.2783,1.2757,1.2741,1.2714,1.2703,1.269,1.2701,1.2706,1.2711,1.2711,1.2702,1.2706,1.2661,1.2661,1.2661,0,0,1.3103,1.3069,1.306,1.3016,1.2989,1.297,1.2934,1.2915,1.29,1.285,1.2828,1.2801,1.2759,1.2743,1.2734,1.2721,1.2721,1.2713,1.2717,1.2714,1.2704,1.2708,1.2712,1.2662,1.2661,1.2661,0,0,1.3134,1.3107,1.3099,1.3073,1.3032,1.3001,1.2999,1.295,1.293,1.2908,1.287,1.285,1.2806,1.2778,1.2758,1.2779,1.275,1.2771,1.2797,1.2789,1.2792,1.2795,1.2801,1.2804,1.2772,1.2772,1.2772,0,1.3167,1.3139,1.3098,1.3082,1.3063,1.3018,1.3008,1.2984,1.2936,1.2923,1.291,1.2853,1.2822,1.2799,1.2804,1.2789,1.2784,1.2776,1.2796,1.2798,1.28,1.2805,1.2808,1.2774,1.2774,1.2774,1.2774,0,1.318,1.3161,1.3159,1.3115,1.3096,1.3084,1.3039,1.3024,1.2998,1.2968,1.2944,1.2906,1.287,1.2862,1.2836,1.2834,1.2827,1.2805,1.2781,1.2808,1.2812,1.2814,1.2778,1.2777,1.2777,1.2776,0,0,1.3244,1.3179,1.3178,1.3158,1.311,1.3093,1.3078,1.3044,1.3031,1.3,1.2984,1.2948,1.2928,1.2905,1.2875,1.2868,1.2885,1.2846,1.2845,1.2854,1.2879,1.2895,1.2898,1.2866,1.2866,1.2866,1.2882,0,1.3267,1.3239,1.3201,1.3185,1.3165,1.3122,1.3108,1.3076,1.3048,1.3026,1.2993,1.2968,1.2943,1.2929,1.292,1.2885,1.2889,1.2883,1.2849,1.2848,1.286,1.2901,1.2918,1.2935,1.2884,1.2884,1.2884,0,1.329,1.3262,1.3245,1.3198,1.3188,1.3177,1.3142,1.3122,1.3084,1.3064,1.3039,1.3006,1.2986,1.2965,1.2935,1.2932,1.2915,1.2896,1.2895,1.289,1.2868,1.2895,1.294,1.2942,1.2886,1.2886,1.2886,0,1.3338,1.3296,1.3279,1.3263,1.3208,1.3201,1.3177,1.3139,1.312,1.309,1.3077,1.3044,1.3025,1.3,1.2958,1.2947,1.2933,1.2908,1.2913,1.2914,1.2912,1.2912,1.2953,1.2903,1.2903,1.2903,1.2903,0,1.3367,1.3357,1.33,1.329,1.3277,1.3233,1.3221,1.3193,1.316,1.3142,1.3102,1.3086,1.3033,1.301,1.2977,1.2957,1.2949,1.293,1.2922,1.2934,1.2936,1.2922,1.2919,1.2903,1.2903,1.2903,1.2903,0,1.3418,1.3379,1.3358,1.3308,1.3295,1.3288,1.3244,1.3231,1.32,1.3178,1.317,1.3121,1.3092,1.3049,1.3006,1.2984,1.2968,1.2955,1.2982,1.2976,1.2984,1.2983,1.3016,1.3017,1.2968,1.2968,1.2969,0,1.3439,1.343,1.338,1.3366,1.3344,1.3322,1.3303,1.3259,1.3241,1.3198,1.319,1.3158,1.313,1.3085,1.3045,1.3011,1.2996,1.301,1.2991,1.3003,1.2995,1.2996,1.2994,1.3014,1.3015,1.3016,1.3016,0,1.3479,1.3461,1.3436,1.3405,1.3385,1.3358,1.3328,1.3319,1.3268,1.3249,1.322,1.3199,1.3156,1.3124,1.3085,1.3059,1.3028,1.3023,1.3022,1.3033,1.3049,1.304,1.2993,1.3022,1.3021,1.3021,1.3021,1.302,1.3515,1.3505,1.3468,1.3442,1.3416,1.3389,1.3375,1.3343,1.3318,1.3281,1.3256,1.3227,1.3188,1.3134,1.3109,1.3084,1.3072,1.3071,1.307,1.3071,1.3075,1.3054,1.3077,1.3077,1.3077,1.3077,1.3076,0,1.3553,1.3527,1.3503,1.3465,1.3444,1.3419,1.3385,1.3369,1.3345,1.3312,1.3286,1.3251,1.322,1.3177,1.3142,1.3131,1.3116,1.3123,1.3123,1.3117,1.3088,1.3092,1.3136,1.3136,1.3136,1.3136,1.3136,1.3136,1.357,1.3552,1.3529,1.3497,1.347,1.3444,1.3426,1.3401,1.3375,1.3338,1.3313,1.3286,1.3248,1.321,1.318,1.3168,1.3156,1.3168,1.3151,1.3125,1.3119,1.3114,1.3117,1.3166,1.3166,1.3182,1.3182,1.3182]}]]